星链-36076(STARLINK-36076)

导读

STARLINK-36076是美国SpaceX公司星链星座的成员,于2025年11月22日发射升空,运行在低地球轨道。作为星链全球卫星互联网系统的一部分,它为偏远地区及全球用户提供高速、低延迟的宽带互联网接入服务,支持远程办公、高清流媒体、在线游戏等应用,助力实现全球互联网覆盖,进一步完善了星链星座的组网布局。

Basic Information
目录编号:
66588
目录名称:
STARLINK-36076
国际标识:
2025-270A
轨道中心:
EARTH
卫星名称:
星链-36076
卫星全名:
星链-36076(STARLINK-36076)
卫星状态:
在轨 (已飞行295 天)
发射日期:
2025-11-22 UTC
国别 :
美国 (US)
星等 :
--
This satellite is enrolled in the Space Conjunction Data Service (SCDS) and the current flight risk assessment level is: High Risk
Orbit Information
数据来源 国际轨道数据
星历时间: 2026-09-13T06:05:40+0800
10小时前
查看轨道信息
半长轴: 6861.143km
偏心率: 0.0001808
轨道倾角: 43.001°
近地点辐角 267.421°
升交点赤经 78.522°
平近点角 92.644°
近地点: 481.765km
远地点: 484.247km
周期: 94.266分钟
每日圈数: 15.275945
Detailed Information
固有亮度:
5
最大亮度:
2.5
卫星平台:
Starlink V1.0
覆盖范围:
全球
运营商:
太空探索技术公司
运营商所在国:
美国
制造商(研发单位):
太空探索技术公司
制造商所在国:
美国
使用方式:
暂无
Satellite Introduction
Starlink 计划是 SpaceX 推出的全球卫星互联网项目,通过发射低轨道卫星,为全球尤其是偏远地区提供高速、低延迟的互联网服务。自 2019 年起,Starlink 已部署数千颗卫星,旨在缩小全球数字鸿沟,推动互联网普及。该项目还为军事、航空等行业提供通信支持,带来广泛经济效益。
2D Orbit Map
3D Orbit Map
Orbit Altitude Analysis Chart
Orbit Inclination Analysis Chart
Orbit Comprehensive Analysis Chart
View Comprehensive Chart
Conjunction Data List
Event ID Objects TCA Miss Dist (km) Collision Risk Probability Collision Risk Index (CRI) Action
CDM_260914-014805-550106-658821
2026-09-14T
01:48:58+0000
0.445 km
远距离
1.642412E-4 高风险 0.79
CDM_260914-030005-777706-658821
2026-09-14T
03:00:45+0000
0.678 km
远距离
7.163563E-5 中风险 0.72
CDM_260910-112705-537906-658821
2026-09-10T
11:27:44+0000
0.871 km
远距离
2.768765E-5 中风险 0.64
CDM_260913-144705-537906-658821
2026-09-13T
14:47:15+0000
1.023 km
极远距离
1.598945E-5 中风险 0.59
CDM_260914-085205-550106-658821
2026-09-14T
08:52:39+0000
1.072 km
极远距离
1.181723E-5 中风险 0.56
CDM_260913-232505-537906-658821
2026-09-13T
23:25:06+0000
1.462 km
极远距离
4.743957E-6 低风险 0.49
CDM_260914-144605-777706-658821
2026-09-14T
14:46:54+0000
1.591 km
极远距离
4.221125E-6 低风险 0.48
CDM_260913-162105-537906-658822
2026-09-13T
16:21:24+0000
1.826 km
极远距离
2.431447E-6 低风险 0.43
CDM_260910-095305-537906-658821
2026-09-10T
09:53:35+0000
2.064 km
极远距离
1.781192E-6 低风险 0.4
CDM_260910-162305-690106-658822
2026-09-10T
16:23:08+0000
1.660 km
极远距离
1.528333E-6 低风险 0.39
Miss Distance Evolution Trend with All Objects
Collision Probability Evolution Trend with All Objects